EST,Max TemperatureF,Mean TemperatureF,Min TemperatureF,Max Dew PointF,MeanDew PointF,Min DewpointF,Max Humidity, Mean Humidity, Min Humidity, Max Sea Level PressureIn, Mean Sea Level PressureIn, Min Sea Level PressureIn, Max VisibilityMiles, Mean VisibilityMiles, Min VisibilityMiles, Max Wind SpeedMPH, Mean Wind SpeedMPH, Max Gust SpeedMPH,PrecipitationIn, CloudCover, Events, WindDirDegrees
2012-11-1,51,45,38,38,37,35,85,72,59,29.70,29.66,29.63,10,10,10,15,8,18,0.00,5,,253
2012-11-2,53,48,42,37,34,30,71,59,46,29.84,29.73,29.68,10,10,10,15,10,25,T,7,Rain,278
2012-11-3,50,45,40,32,30,28,67,57,46,30.01,29.92,29.84,10,10,10,24,12,32,0.00,7,,295
2012-11-4,50,41,31,30,28,26,75,61,46,30.06,30.02,29.98,10,10,10,17,8,23,0.00,3,,292
2012-11-5,47,38,29,29,26,21,75,59,42,30.19,30.07,30.00,10,10,10,18,10,28,0.00,4,,333
2012-11-6,48,38,27,29,25,20,75,62,49,30.21,30.14,29.99,10,10,10,18,9,23,0.00,5,,22
2012-11-7,45,39,32,36,32,29,92,78,64,29.95,29.84,29.79,10,5,0,23,15,29,0.86,8,Fog-Rain-Snow,352
2012-11-8,49,41,33,31,27,21,89,63,36,29.96,29.84,29.80,10,9,5,26,12,36,T,4,Snow,315
2012-11-9,55,44,33,31,26,22,82,57,32,30.24,30.11,29.98,10,10,10,21,9,26,0.00,0,,303
2012-11-10,61,46,31,42,35,27,93,66,39,30.43,30.34,30.25,10,9,5,8,2,12,0.00,1,,215
2012-11-11,63,51,38,51,45,37,100,76,52,30.51,30.47,30.43,10,5,0,15,7,20,0.00,0,Fog,162
2012-11-12,67,55,43,57,53,43,100,82,63,30.48,30.40,30.22,10,6,0,17,8,28,0.00,2,Fog,174
2012-11-13,61,49,36,58,43,28,93,78,62,30.45,30.30,30.16,10,9,4,22,11,26,0.16,7,Rain,322
2012-11-14,49,40,30,33,29,25,85,66,46,30.52,30.47,30.44,10,10,10,16,8,22,0.00,3,,1
2012-11-15,47,42,37,33,31,29,76,67,58,30.41,30.36,30.29,10,10,10,16,8,21,0.00,6,,16
2012-11-16,51,40,29,31,28,23,78,60,42,30.43,30.34,30.28,10,10,10,12,5,16,0.00,1,,347
2012-11-17,52,40,28,38,32,23,89,73,56,30.61,30.55,30.43,10,10,10,20,7,25,0.00,1,,23
2012-11-18,51,43,35,40,37,32,89,74,59,30.63,30.58,30.50,10,10,10,20,10,24,0.00,7,,33
2012-11-19,52,49,45,43,41,39,86,79,71,30.47,30.35,30.22,10,10,10,16,10,23,0.00,7,,26
2012-11-20,53,46,39,42,38,35,86,70,54,30.21,30.16,30.11,10,10,10,12,7,20,0.00,3,,21
2012-11-21,54,43,32,38,34,29,92,69,45,30.22,30.18,30.13,10,10,10,15,6,23,0.00,1,,14
2012-11-22,56,44,31,43,35,28,92,74,55,30.26,30.20,30.14,10,7,1,15,5,17,0.00,0,,34
2012-11-23,57,44,30,44,35,28,100,76,51,30.14,30.01,29.73,10,5,0,12,3,14,T,4,Fog,225
2012-11-24,49,42,35,38,22,18,80,59,37,29.95,29.84,29.73,10,10,10,29,16,37,0.00,3,,288
2012-11-25,43,35,27,21,20,18,69,55,41,30.02,29.99,29.94,10,10,10,21,8,25,0.00,0,,260
2012-11-26,51,38,24,26,23,19,85,59,32,30.27,30.15,30.01,10,10,10,17,4,21,0.00,0,,274
2012-11-27,43,35,27,40,35,23,93,79,64,30.27,30.20,30.14,10,6,2,14,7,18,0.32,8,Rain,8
2012-11-28,44,35,26,34,27,20,92,68,43,30.35,30.25,30.18,10,10,10,21,8,25,0.00,4,,316
2012-11-29,47,36,25,29,23,19,75,56,37,30.43,30.38,30.35,10,10,10,15,6,21,0.00,0,,259
2012-11-30,51,38,24,39,31,21,100,75,50,30.40,30.38,30.35,10,5,0,10,2,14,0.00,2,Fog,129